Rome, GA

3:08 PM EDT on June 28, 2017 (GMT -0400)
Russell

Weather History for KRMG - November, 2013

Change the Weather History Date:

Sunday, November 17, 2013

  Actual Average Record
Temperature  
Mean Temperature 65 °F 50 °F  
Max Temperature 69 °F 63 °F 79 °F (2016)
Min Temperature 60 °F 38 °F 19 °F (1997)
Degree Days  
Heating Degree Days 0 15  
Month to date heating degree days 232 208  
Since 1 July heating degree days 368 385  
Growing Degree Days 13 (Base 50)    
Moisture  
Dew Point 62 °F    
Average Humidity 92    
Maximum Humidity 100    
Minimum Humidity 84    
Precipitation  
Precipitation 0.28 in 0.17 in 1.99 in (2014)
Month to date precipitation 0.91 2.47  
Year to date precipitation 45.16  
Snow  
Snow 0.00 in - - ()
Month to date snowfall 0.0  
Since 1 July snowfall 0.0  
Since 1 September snowfall 0.0  
Snow Depth 0.00 in    
Sea Level Pressure  
Sea Level Pressure 29.96 in    
Wind  
Wind Speed 6 mph (SSE)    
Max Wind Speed 14 mph    
Max Gust Speed 25 mph    
Visibility 6 miles    
Events Rain    
T = Trace of Precipitation, MM = Missing Value Source: NWS Daily Summary

Daily Weather History Graph

Daily Weather History Graph

Search for Another Location

Airport or City:

Trip Planner

Search our weather history database for the weather conditions in past years. The results will help you decide how hot, cold, wet, or windy it might be!

Date:

Astronomy

Nov. 17, 2013 Rise Set
Actual Time 7:15 AM EST 5:35 PM EST
Civil Twilight 6:49 AM EST 6:01 PM EST
Nautical Twilight 6:18 AM EST 6:32 PM EST
Astronomical Twilight 5:48 AM EST 7:02 PM EST
Moon 5:51 PM EST (11/17) 7:09 AM EST (11/17)
Length of Visible Light 11h 12m
Length of Day
10h 19m
Full, 100% of the Moon is Illuminated
Nov 17
Full
Nov 25
Last Quarter
Dec 2
New
Dec 9
First Quarter
Dec 17
Full

Hourly Weather History & Observations

Time (EST) Temp. Dew Point Humidity Pressure Visibility Wind Dir Wind Speed Gust Speed Precip Events Conditions
12:53 AM 61.0 °F 55.9 °F 83% 30.09 in 10.0 mi SSE 13.8 mph 20.7 mph N/A   Overcast
1:53 AM 61.0 °F 55.9 °F 83% 30.07 in 10.0 mi SE 9.2 mph - N/A   Overcast
2:53 AM 61.0 °F 55.9 °F 83% 30.06 in 10.0 mi SSE 10.4 mph - N/A   Overcast
3:53 AM 61.0 °F 55.9 °F 83% 30.04 in 10.0 mi SSE 6.9 mph - N/A   Overcast
4:53 AM 61.0 °F 57.0 °F 87% 30.03 in 10.0 mi SSE 6.9 mph - N/A   Overcast
5:53 AM 61.0 °F 57.0 °F 87% 30.04 in 10.0 mi SSE 4.6 mph - N/A   Overcast
6:53 AM 61.0 °F 57.0 °F 87% 30.03 in 10.0 mi SE 8.1 mph - N/A   Overcast
7:24 AM 60.8 °F 57.2 °F 88% 30.04 in 10.0 mi SE 6.9 mph - N/A   Overcast
7:53 AM 61.0 °F 57.0 °F 87% 30.02 in 10.0 mi SE 6.9 mph - N/A   Overcast
8:14 AM 60.8 °F 57.2 °F 88% 30.03 in 8.0 mi SE 10.4 mph - N/A   Overcast
8:53 AM 62.1 °F 57.9 °F 86% 30.02 in 7.0 mi SE 8.1 mph - N/A   Overcast
9:53 AM 63.0 °F 59.0 °F 87% 30.02 in 10.0 mi SSE 9.2 mph - N/A   Overcast
10:53 AM 63.0 °F 60.1 °F 90% 30.01 in 10.0 mi SE 6.9 mph - N/A   Overcast
11:53 AM 63.0 °F 62.1 °F 97% 29.99 in 3.0 mi SSE 6.9 mph - N/A   Overcast
12:33 PM 62.6 °F 62.6 °F 100% 29.99 in 2.5 mi SSE 5.8 mph - 0.01 in Rain Light Rain
12:41 PM 62.6 °F 62.6 °F 100% 29.98 in 3.0 mi SSE 4.6 mph - 0.01 in Rain Light Rain
12:53 PM 63.0 °F 63.0 °F 100% 29.96 in 3.0 mi SSE 4.6 mph - 0.01 in Rain Light Rain
1:53 PM 64.0 °F 63.0 °F 96% 29.93 in 5.0 mi SSE 5.8 mph - 0.01 in   Overcast
2:53 PM 64.9 °F 64.0 °F 97% 29.90 in 10.0 mi South 5.8 mph - 0.01 in   Overcast
3:36 PM 64.4 °F 64.4 °F 100% 29.89 in 10.0 mi South 8.1 mph - N/A   Overcast
3:53 PM 66.0 °F 64.0 °F 93% 29.88 in 10.0 mi SSE 3.5 mph - N/A   Overcast
4:40 PM 66.2 °F 64.4 °F 94% 29.90 in 1.8 mi WSW 3.5 mph - 0.02 in Rain Rain
4:53 PM 66.9 °F 66.0 °F 97% 29.88 in 2.0 mi SSW 3.5 mph - 0.09 in Rain Heavy Rain
5:08 PM 66.2 °F 66.2 °F 100% 29.90 in 3.0 mi SSW 4.6 mph - 0.04 in Rain Light Rain
5:53 PM 66.0 °F 66.0 °F 100% 29.89 in 2.5 mi South 4.6 mph - 0.07 in Rain Light Rain
6:05 PM 66.2 °F 66.2 °F 100% 29.91 in 4.0 mi SSE 5.8 mph - 0.00 in Rain Light Rain
6:53 PM 64.9 °F 64.9 °F 100% 29.90 in 3.0 mi SSE 3.5 mph - 0.01 in Rain Light Rain
7:50 PM 66.2 °F 66.2 °F 100% 29.92 in 2.5 mi Calm Calm - 0.04 in Rain Light Rain
7:53 PM 66.0 °F 66.0 °F 100% 29.90 in 2.5 mi South 4.6 mph - 0.04 in Rain Light Rain
8:01 PM 66.2 °F 66.2 °F 100% 29.92 in 4.0 mi Calm Calm - 0.01 in Rain Light Rain
8:24 PM 66.2 °F 66.2 °F 100% 29.92 in 2.5 mi Calm Calm - 0.02 in Rain Light Rain
8:31 PM 66.2 °F 66.2 °F 100% 29.92 in 4.0 mi Calm Calm - 0.02 in Rain Light Rain
8:48 PM 66.2 °F 66.2 °F 100% 29.92 in 6.0 mi Calm Calm - 0.03 in Rain Light Rain
8:53 PM 66.9 °F 66.9 °F 100% 29.91 in 6.0 mi Calm Calm - 0.03 in Rain Light Rain
9:53 PM 66.0 °F 66.0 °F 100% 29.91 in 8.0 mi South 4.6 mph - 0.01 in Rain Light Rain
10:53 PM 66.9 °F 66.9 °F 100% 29.91 in 10.0 mi North - - 0.00 in   Overcast
11:53 PM 68.0 °F 68.0 °F 100% 29.90 in 7.0 mi SSW 3.5 mph - N/A   Overcast